Year,Month,Day,Hour,Minute,Value (Times are PST for temperature in C)
2012,07,08,00,00,14.70
2012,07,08,00,01,14.70
2012,07,08,00,02,14.70
2012,07,08,00,03,14.60
2012,07,08,00,04,14.60
2012,07,08,00,05,14.60
2012,07,08,00,06,14.60
2012,07,08,00,07,14.60
2012,07,08,00,08,14.50
2012,07,08,00,09,14.50
2012,07,08,00,10,14.40
2012,07,08,00,11,14.40
2012,07,08,00,12,14.40
2012,07,08,00,13,14.40
2012,07,08,00,14,14.30
2012,07,08,00,15,14.20
2012,07,08,00,16,14.20
2012,07,08,00,17,14.10
2012,07,08,00,18,14.00
2012,07,08,00,19,13.90
2012,07,08,00,20,13.80
2012,07,08,00,21,13.80
2012,07,08,00,22,13.70
2012,07,08,00,23,13.70
2012,07,08,00,24,13.60
2012,07,08,00,25,13.60
2012,07,08,00,26,13.60
2012,07,08,00,27,13.60
2012,07,08,00,28,13.60
2012,07,08,00,29,13.60
2012,07,08,00,30,13.50
2012,07,08,00,31,13.50
2012,07,08,00,32,13.40
2012,07,08,00,33,13.40
2012,07,08,00,34,13.40
2012,07,08,00,35,13.40
2012,07,08,00,36,13.40
2012,07,08,00,37,13.30
2012,07,08,00,38,13.30
2012,07,08,00,39,13.30
2012,07,08,00,40,13.30
2012,07,08,00,41,13.30
2012,07,08,00,42,13.30
2012,07,08,00,43,13.20
2012,07,08,00,44,13.20
2012,07,08,00,45,13.20
2012,07,08,00,46,13.20
2012,07,08,00,47,13.10
2012,07,08,00,48,13.10
2012,07,08,00,49,13.10
2012,07,08,00,50,13.10
2012,07,08,00,51,13.10
2012,07,08,00,52,13.10
2012,07,08,00,53,13.10
2012,07,08,00,54,13.10
2012,07,08,00,55,13.10
2012,07,08,00,56,13.10
2012,07,08,00,57,13.10
2012,07,08,00,58,13.10
2012,07,08,00,59,13.10
2012,07,08,01,00,13.10
2012,07,08,01,01,13.10
2012,07,08,01,02,13.00
2012,07,08,01,03,13.00
2012,07,08,01,04,13.00
2012,07,08,01,05,13.00
2012,07,08,01,06,13.00
2012,07,08,01,07,12.90
2012,07,08,01,08,12.80
2012,07,08,01,09,12.80
2012,07,08,01,10,12.70
2012,07,08,01,11,12.70
2012,07,08,01,12,12.70
2012,07,08,01,13,12.60
2012,07,08,01,14,12.60
2012,07,08,01,15,12.60
2012,07,08,01,16,12.60
2012,07,08,01,17,12.60
2012,07,08,01,18,12.50
2012,07,08,01,19,12.50
2012,07,08,01,20,12.50
2012,07,08,01,21,12.50
2012,07,08,01,22,12.50
2012,07,08,01,23,12.50
2012,07,08,01,24,12.60
2012,07,08,01,25,12.60
2012,07,08,01,26,12.60
2012,07,08,01,27,12.70
2012,07,08,01,28,12.70
2012,07,08,01,29,12.70
2012,07,08,01,30,12.70
2012,07,08,01,31,12.70
2012,07,08,01,32,12.70
2012,07,08,01,33,12.60
2012,07,08,01,34,12.60
2012,07,08,01,35,12.60
2012,07,08,01,36,12.60
2012,07,08,01,37,12.70
2012,07,08,01,38,12.70
2012,07,08,01,39,12.70
2012,07,08,01,40,12.70
2012,07,08,01,41,12.70
2012,07,08,01,42,12.70
2012,07,08,01,43,12.70
2012,07,08,01,44,12.70
2012,07,08,01,45,12.80
2012,07,08,01,46,12.70
2012,07,08,01,47,12.70
2012,07,08,01,48,12.70
2012,07,08,01,49,12.70
2012,07,08,01,50,12.60
2012,07,08,01,51,12.60
2012,07,08,01,52,12.60
2012,07,08,01,53,12.50
2012,07,08,01,54,12.50
2012,07,08,01,55,12.50
2012,07,08,01,56,12.40
2012,07,08,01,57,12.40
2012,07,08,01,58,12.30
2012,07,08,01,59,12.30
2012,07,08,02,00,12.20
2012,07,08,02,01,12.20
2012,07,08,02,02,12.20
2012,07,08,02,03,12.20
2012,07,08,02,04,12.10
2012,07,08,02,05,12.10
2012,07,08,02,06,12.10
2012,07,08,02,07,12.10
2012,07,08,02,08,12.10
2012,07,08,02,09,12.10
2012,07,08,02,10,12.00
2012,07,08,02,11,12.00
2012,07,08,02,12,11.90
2012,07,08,02,13,11.90
2012,07,08,02,14,11.90
2012,07,08,02,15,11.90
2012,07,08,02,16,11.90
2012,07,08,02,17,11.80
2012,07,08,02,18,11.80
2012,07,08,02,19,11.80
2012,07,08,02,20,11.80
2012,07,08,02,21,11.80
2012,07,08,02,22,11.80
2012,07,08,02,23,11.80
2012,07,08,02,24,11.80
2012,07,08,02,25,11.80
2012,07,08,02,26,11.80
2012,07,08,02,27,11.80
2012,07,08,02,28,11.80
2012,07,08,02,29,11.80
2012,07,08,02,30,11.80
2012,07,08,02,31,11.80
2012,07,08,02,32,11.80
2012,07,08,02,33,11.80
2012,07,08,02,34,11.80
2012,07,08,02,35,11.70
2012,07,08,02,36,11.70
2012,07,08,02,37,11.70
2012,07,08,02,38,11.70
2012,07,08,02,39,11.70
2012,07,08,02,40,11.70
2012,07,08,02,41,11.60
2012,07,08,02,42,11.60
2012,07,08,02,43,11.60
2012,07,08,02,44,11.60
2012,07,08,02,45,11.60
2012,07,08,02,46,11.60
2012,07,08,02,47,11.60
2012,07,08,02,48,11.50
2012,07,08,02,49,11.50
2012,07,08,02,50,11.50
2012,07,08,02,51,11.50
2012,07,08,02,52,11.50
2012,07,08,02,53,11.50
2012,07,08,02,54,11.50
2012,07,08,02,55,11.40
2012,07,08,02,56,11.40
2012,07,08,02,57,11.40
2012,07,08,02,58,11.40
2012,07,08,02,59,11.40
2012,07,08,03,00,11.50
2012,07,08,03,01,11.50
2012,07,08,03,02,11.50
2012,07,08,03,03,11.50
2012,07,08,03,04,11.50
2012,07,08,03,05,11.50
2012,07,08,03,06,11.50
2012,07,08,03,07,11.60
2012,07,08,03,08,11.60
2012,07,08,03,09,11.60
2012,07,08,03,10,11.60
2012,07,08,03,11,11.60
2012,07,08,03,12,11.50
2012,07,08,03,13,11.50
2012,07,08,03,14,11.50
2012,07,08,03,15,11.50
2012,07,08,03,16,11.50
2012,07,08,03,17,11.40
2012,07,08,03,18,11.40
2012,07,08,03,19,11.40
2012,07,08,03,20,11.40
2012,07,08,03,21,11.40
2012,07,08,03,22,11.30
2012,07,08,03,23,11.30
2012,07,08,03,24,11.30
2012,07,08,03,25,11.30
2012,07,08,03,26,11.20
2012,07,08,03,27,11.20
2012,07,08,03,28,11.20
2012,07,08,03,29,11.20
2012,07,08,03,30,11.20
2012,07,08,03,31,11.20
2012,07,08,03,32,11.20
2012,07,08,03,33,11.20
2012,07,08,03,34,11.20
2012,07,08,03,35,11.20
2012,07,08,03,36,11.20
2012,07,08,03,37,11.20
2012,07,08,03,38,11.20
2012,07,08,03,39,11.20
2012,07,08,03,40,11.20
2012,07,08,03,41,11.20
2012,07,08,03,42,11.20
2012,07,08,03,43,11.30
2012,07,08,03,44,11.30
2012,07,08,03,45,11.30
2012,07,08,03,46,11.30
2012,07,08,03,47,11.30
2012,07,08,03,48,11.30
2012,07,08,03,49,11.40
2012,07,08,03,50,11.40
2012,07,08,03,51,11.40
2012,07,08,03,52,11.40
2012,07,08,03,53,11.40
2012,07,08,03,54,11.40
2012,07,08,03,55,11.40
2012,07,08,03,56,11.40
2012,07,08,03,57,11.40
2012,07,08,03,58,11.40
2012,07,08,03,59,11.40
2012,07,08,04,00,11.30
2012,07,08,04,01,11.30
2012,07,08,04,02,11.30
2012,07,08,04,03,11.30
2012,07,08,04,04,11.30
2012,07,08,04,05,11.30
2012,07,08,04,06,11.30
2012,07,08,04,07,11.30
2012,07,08,04,08,11.30
2012,07,08,04,09,11.30
2012,07,08,04,10,11.20
2012,07,08,04,11,11.20
2012,07,08,04,12,11.20
2012,07,08,04,13,11.20
2012,07,08,04,14,11.20
2012,07,08,04,15,11.20
2012,07,08,04,16,11.20
2012,07,08,04,17,11.10
2012,07,08,04,18,11.10
2012,07,08,04,19,11.10
2012,07,08,04,20,11.10
2012,07,08,04,21,11.10
2012,07,08,04,22,11.10
2012,07,08,04,23,11.10
2012,07,08,04,24,11.10
2012,07,08,04,25,11.10
2012,07,08,04,26,11.10
2012,07,08,04,27,11.10
2012,07,08,04,28,11.10
2012,07,08,04,29,11.10
2012,07,08,04,30,11.10
2012,07,08,04,31,11.10
2012,07,08,04,32,11.00
2012,07,08,04,33,11.00
2012,07,08,04,34,11.00
2012,07,08,04,35,11.00
2012,07,08,04,36,10.90
2012,07,08,04,37,10.90
2012,07,08,04,38,10.90
2012,07,08,04,39,10.90
2012,07,08,04,40,10.90
2012,07,08,04,41,10.80
2012,07,08,04,42,10.80
2012,07,08,04,43,10.80
2012,07,08,04,44,10.80
2012,07,08,04,45,10.80
2012,07,08,04,46,10.80
2012,07,08,04,47,10.80
2012,07,08,04,48,10.80
2012,07,08,04,49,10.80
2012,07,08,04,50,10.80
2012,07,08,04,51,10.80
2012,07,08,04,52,10.80
2012,07,08,04,53,10.80
2012,07,08,04,54,10.80
2012,07,08,04,55,10.70
2012,07,08,04,56,10.70
2012,07,08,04,57,10.70
2012,07,08,04,58,10.70
2012,07,08,04,59,10.70
2012,07,08,05,00,10.70
2012,07,08,05,01,10.70
2012,07,08,05,02,10.70
2012,07,08,05,03,10.70
2012,07,08,05,04,10.80
2012,07,08,05,05,10.70
2012,07,08,05,06,10.70
2012,07,08,05,07,10.70
2012,07,08,05,08,10.70
2012,07,08,05,09,10.70
2012,07,08,05,10,10.70
2012,07,08,05,11,10.70
2012,07,08,05,12,10.70
2012,07,08,05,13,10.70
2012,07,08,05,14,10.70
2012,07,08,05,15,10.70
2012,07,08,05,16,10.70
2012,07,08,05,17,10.70
2012,07,08,05,18,10.70
2012,07,08,05,19,10.70
2012,07,08,05,20,10.70
2012,07,08,05,21,10.70
2012,07,08,05,22,10.70
2012,07,08,05,23,10.70
2012,07,08,05,24,10.70
2012,07,08,05,25,10.70
2012,07,08,05,26,10.70
2012,07,08,05,27,10.70
2012,07,08,05,28,10.70
2012,07,08,05,29,10.70
2012,07,08,05,30,10.70
2012,07,08,05,31,10.70
2012,07,08,05,32,10.70
2012,07,08,05,33,10.70
2012,07,08,05,34,10.60
2012,07,08,05,35,10.60
2012,07,08,05,36,10.60
2012,07,08,05,37,10.60
2012,07,08,05,38,10.60
2012,07,08,05,39,10.60
2012,07,08,05,40,10.60
2012,07,08,05,41,10.60
2012,07,08,05,42,10.60
2012,07,08,05,43,10.60
2012,07,08,05,44,10.70
2012,07,08,05,45,10.70
2012,07,08,05,46,10.70
2012,07,08,05,47,10.70
2012,07,08,05,48,10.70
2012,07,08,05,49,10.70
2012,07,08,05,50,10.60
2012,07,08,05,51,10.70
2012,07,08,05,52,10.70
2012,07,08,05,53,10.70
2012,07,08,05,54,10.70
2012,07,08,05,55,10.70
2012,07,08,05,56,10.70
2012,07,08,05,57,10.70
2012,07,08,05,58,10.70
2012,07,08,05,59,10.70
2012,07,08,06,00,10.70
2012,07,08,06,01,10.80
2012,07,08,06,02,10.80
2012,07,08,06,03,10.80
2012,07,08,06,04,10.80
2012,07,08,06,05,10.80
2012,07,08,06,06,10.90
2012,07,08,06,07,10.90
2012,07,08,06,08,10.90
2012,07,08,06,09,10.90
2012,07,08,06,10,11.00
2012,07,08,06,11,11.00
2012,07,08,06,12,11.00
2012,07,08,06,13,11.10
2012,07,08,06,14,11.10
2012,07,08,06,15,11.10
2012,07,08,06,16,11.10
2012,07,08,06,17,11.10
2012,07,08,06,18,11.10
2012,07,08,06,19,11.20
2012,07,08,06,20,11.20
2012,07,08,06,21,11.20
2012,07,08,06,22,11.20
2012,07,08,06,23,11.30
2012,07,08,06,24,11.30
2012,07,08,06,25,11.30
2012,07,08,06,26,11.30
2012,07,08,06,27,11.40
2012,07,08,06,28,11.40
2012,07,08,06,29,11.40
2012,07,08,06,30,11.40
2012,07,08,06,31,11.40
2012,07,08,06,32,11.50
2012,07,08,06,33,11.50
2012,07,08,06,34,11.50
2012,07,08,06,35,11.60
2012,07,08,06,36,11.60
2012,07,08,06,37,11.60
2012,07,08,06,38,11.60
2012,07,08,06,39,11.60
2012,07,08,06,40,11.70
2012,07,08,06,41,11.70
2012,07,08,06,42,11.70
2012,07,08,06,43,11.70
2012,07,08,06,44,11.70
2012,07,08,06,45,11.80
2012,07,08,06,46,11.80
2012,07,08,06,47,11.80
2012,07,08,06,48,11.80
2012,07,08,06,49,11.90
2012,07,08,06,50,11.90
2012,07,08,06,51,11.90
2012,07,08,06,52,12.00
2012,07,08,06,53,12.00
2012,07,08,06,54,12.10
2012,07,08,06,55,12.10
2012,07,08,06,56,12.20
2012,07,08,06,57,12.20
2012,07,08,06,58,12.20
2012,07,08,06,59,12.30
2012,07,08,07,00,12.30
2012,07,08,07,01,12.40
2012,07,08,07,02,12.40
2012,07,08,07,03,12.50
2012,07,08,07,04,12.60
2012,07,08,07,05,12.70
2012,07,08,07,06,12.70
2012,07,08,07,07,12.80
2012,07,08,07,08,12.80
2012,07,08,07,09,12.90
2012,07,08,07,10,13.00
2012,07,08,07,11,13.10
2012,07,08,07,12,13.20
2012,07,08,07,13,13.30
2012,07,08,07,14,13.40
2012,07,08,07,15,13.50
2012,07,08,07,16,13.60
2012,07,08,07,17,13.70
2012,07,08,07,18,13.80
2012,07,08,07,19,13.90
2012,07,08,07,20,14.00
2012,07,08,07,21,14.10
2012,07,08,07,22,14.20
2012,07,08,07,23,14.30
2012,07,08,07,24,14.50
2012,07,08,07,25,14.60
2012,07,08,07,26,14.70
2012,07,08,07,27,14.80
2012,07,08,07,28,14.90
2012,07,08,07,29,15.00
2012,07,08,07,30,15.10
2012,07,08,07,31,15.20
2012,07,08,07,32,15.20
2012,07,08,07,33,15.30
2012,07,08,07,34,15.30
2012,07,08,07,35,15.40
2012,07,08,07,36,15.50
2012,07,08,07,37,15.50
2012,07,08,07,38,15.60
2012,07,08,07,39,15.70
2012,07,08,07,40,15.70
2012,07,08,07,41,15.80
2012,07,08,07,42,15.80
2012,07,08,07,43,15.90
2012,07,08,07,44,16.00
2012,07,08,07,45,16.10
2012,07,08,07,46,16.20
2012,07,08,07,47,16.20
2012,07,08,07,48,16.30
2012,07,08,07,49,16.40
2012,07,08,07,50,16.40
2012,07,08,07,51,16.50
2012,07,08,07,52,16.50
2012,07,08,07,53,16.50
2012,07,08,07,54,16.50
2012,07,08,07,55,16.50
2012,07,08,07,56,16.50
2012,07,08,07,57,16.50
2012,07,08,07,58,16.40
2012,07,08,07,59,16.40
2012,07,08,08,00,16.40
2012,07,08,08,01,16.40
2012,07,08,08,02,16.40
2012,07,08,08,03,16.40
2012,07,08,08,04,16.50
2012,07,08,08,05,16.60
2012,07,08,08,06,16.60
2012,07,08,08,07,16.70
2012,07,08,08,08,16.80
2012,07,08,08,09,16.90
2012,07,08,08,10,16.90
2012,07,08,08,11,17.00
2012,07,08,08,12,17.00
2012,07,08,08,13,17.10
2012,07,08,08,14,17.00
2012,07,08,08,15,17.00
2012,07,08,08,16,16.90
2012,07,08,08,17,16.90
2012,07,08,08,18,16.90
2012,07,08,08,19,16.90
2012,07,08,08,20,16.90
2012,07,08,08,21,16.90
2012,07,08,08,22,16.90
2012,07,08,08,23,17.00
2012,07,08,08,24,17.00
2012,07,08,08,25,17.00
2012,07,08,08,26,17.00
2012,07,08,08,27,17.10
2012,07,08,08,28,17.10
2012,07,08,08,29,17.10
2012,07,08,08,30,17.10
2012,07,08,08,31,17.10
2012,07,08,08,32,17.10
2012,07,08,08,33,17.10
2012,07,08,08,34,17.10
2012,07,08,08,35,17.10
2012,07,08,08,36,17.10
2012,07,08,08,37,17.10
2012,07,08,08,38,17.10
2012,07,08,08,39,17.10
2012,07,08,08,40,17.10
2012,07,08,08,41,17.10
2012,07,08,08,42,17.20
2012,07,08,08,43,17.20
2012,07,08,08,44,17.20
2012,07,08,08,45,17.30
2012,07,08,08,46,17.30
2012,07,08,08,47,17.40
2012,07,08,08,48,17.40
2012,07,08,08,49,17.50
2012,07,08,08,50,17.60
2012,07,08,08,51,17.70
2012,07,08,08,52,17.80
2012,07,08,08,53,17.80
2012,07,08,08,54,17.90
2012,07,08,08,55,18.00
2012,07,08,08,56,18.00
2012,07,08,08,57,18.10
2012,07,08,08,58,18.20
2012,07,08,08,59,18.20
2012,07,08,09,00,18.30
2012,07,08,09,01,18.30
2012,07,08,09,02,18.40
2012,07,08,09,03,18.50
2012,07,08,09,04,18.50
2012,07,08,09,05,18.60
2012,07,08,09,06,18.60
2012,07,08,09,07,18.60
2012,07,08,09,08,18.60
2012,07,08,09,09,18.60
2012,07,08,09,10,18.60
2012,07,08,09,11,18.60
2012,07,08,09,12,18.70
2012,07,08,09,13,18.70
2012,07,08,09,14,18.70
2012,07,08,09,15,18.70
2012,07,08,09,16,18.70
2012,07,08,09,17,18.70
2012,07,08,09,18,18.80
2012,07,08,09,19,18.80
2012,07,08,09,20,18.90
2012,07,08,09,21,18.90
2012,07,08,09,22,19.00
2012,07,08,09,23,19.00
2012,07,08,09,24,19.10
2012,07,08,09,25,19.10
2012,07,08,09,26,19.10
2012,07,08,09,27,19.20
2012,07,08,09,28,19.20
2012,07,08,09,29,19.20
2012,07,08,09,30,19.30
2012,07,08,09,31,19.30
2012,07,08,09,32,19.30
2012,07,08,09,33,19.40
2012,07,08,09,34,19.50
2012,07,08,09,35,19.50
2012,07,08,09,36,19.60
2012,07,08,09,37,19.70
2012,07,08,09,38,19.80
2012,07,08,09,39,19.90
2012,07,08,09,40,20.00
2012,07,08,09,41,20.00
2012,07,08,09,42,20.20
2012,07,08,09,43,20.20
2012,07,08,09,44,20.30
2012,07,08,09,45,20.40
2012,07,08,09,46,20.40
2012,07,08,09,47,20.40
2012,07,08,09,48,20.40
2012,07,08,09,49,20.40
2012,07,08,09,50,20.40
2012,07,08,09,51,20.50
2012,07,08,09,52,20.50
2012,07,08,09,53,20.60
2012,07,08,09,54,20.70
2012,07,08,09,55,20.70
2012,07,08,09,56,20.80
2012,07,08,09,57,20.90
2012,07,08,09,58,21.00
2012,07,08,09,59,21.10
2012,07,08,10,00,21.10
2012,07,08,10,01,21.20
2012,07,08,10,02,21.20
2012,07,08,10,03,21.20
2012,07,08,10,04,21.30
2012,07,08,10,05,21.30
2012,07,08,10,06,21.40
2012,07,08,10,07,21.40
2012,07,08,10,08,21.50
2012,07,08,10,09,21.60
2012,07,08,10,10,21.70
2012,07,08,10,11,21.70
2012,07,08,10,12,21.80
2012,07,08,10,13,21.90
2012,07,08,10,14,22.00
2012,07,08,10,15,22.10
2012,07,08,10,16,22.20
2012,07,08,10,17,22.20
2012,07,08,10,18,22.20
2012,07,08,10,19,22.30
2012,07,08,10,20,22.30
2012,07,08,10,21,22.20
2012,07,08,10,22,22.20
2012,07,08,10,23,22.20
2012,07,08,10,24,22.20
2012,07,08,10,25,22.30
2012,07,08,10,26,22.20
2012,07,08,10,27,22.20
2012,07,08,10,28,22.00
2012,07,08,10,29,21.90
2012,07,08,10,30,21.80
2012,07,08,10,31,21.80
2012,07,08,10,32,21.70
2012,07,08,10,33,21.60
2012,07,08,10,34,21.60
2012,07,08,10,35,21.60
2012,07,08,10,36,21.70
2012,07,08,10,37,21.70
2012,07,08,10,38,21.70
2012,07,08,10,39,21.80
2012,07,08,10,40,21.80
2012,07,08,10,41,21.80
2012,07,08,10,42,21.80
2012,07,08,10,43,21.80
2012,07,08,10,44,21.80
2012,07,08,10,45,21.90
2012,07,08,10,46,21.90
2012,07,08,10,47,21.90
2012,07,08,10,48,22.00
2012,07,08,10,49,22.10
2012,07,08,10,50,22.10
2012,07,08,10,51,22.20
2012,07,08,10,52,22.30
2012,07,08,10,53,22.40
2012,07,08,10,54,22.60
2012,07,08,10,55,22.60
2012,07,08,10,56,22.60
2012,07,08,10,57,22.60
2012,07,08,10,58,22.60
2012,07,08,10,59,22.50
2012,07,08,11,00,22.50
2012,07,08,11,01,22.40
2012,07,08,11,02,22.40
2012,07,08,11,03,22.50
2012,07,08,11,04,22.60
2012,07,08,11,05,22.60
2012,07,08,11,06,22.70
2012,07,08,11,07,22.80
2012,07,08,11,08,22.90
2012,07,08,11,09,23.00
2012,07,08,11,10,23.10
2012,07,08,11,11,23.20
2012,07,08,11,12,23.20
2012,07,08,11,13,23.30
2012,07,08,11,14,23.20
2012,07,08,11,15,23.10
2012,07,08,11,16,23.10
2012,07,08,11,17,23.10
2012,07,08,11,18,23.10
2012,07,08,11,19,23.20
2012,07,08,11,20,23.30
2012,07,08,11,21,23.40
2012,07,08,11,22,23.50
2012,07,08,11,23,23.60
2012,07,08,11,24,23.70
2012,07,08,11,25,23.80
2012,07,08,11,26,23.80
2012,07,08,11,27,23.90
2012,07,08,11,28,24.00
2012,07,08,11,29,24.00
2012,07,08,11,30,24.00
2012,07,08,11,31,23.90
2012,07,08,11,32,23.80
2012,07,08,11,33,23.80
2012,07,08,11,34,23.70
2012,07,08,11,35,23.60
2012,07,08,11,36,23.50
2012,07,08,11,37,23.50
2012,07,08,11,38,23.40
2012,07,08,11,39,23.40
2012,07,08,11,40,23.30
2012,07,08,11,41,23.20
2012,07,08,11,42,23.10
2012,07,08,11,43,23.00
2012,07,08,11,44,22.90
2012,07,08,11,45,22.80
2012,07,08,11,46,22.70
2012,07,08,11,47,22.70
2012,07,08,11,48,22.60
2012,07,08,11,49,22.60
2012,07,08,11,50,22.60
2012,07,08,11,51,22.60
2012,07,08,11,52,22.60
2012,07,08,11,53,22.70
2012,07,08,11,54,22.70
2012,07,08,11,55,22.70
2012,07,08,11,56,22.70
2012,07,08,11,57,22.60
2012,07,08,11,58,22.60
2012,07,08,11,59,22.60
2012,07,08,12,00,22.70
2012,07,08,12,01,22.80
2012,07,08,12,02,22.80
2012,07,08,12,03,22.90
2012,07,08,12,04,23.00
2012,07,08,12,05,23.00
2012,07,08,12,06,23.10
2012,07,08,12,07,23.10
2012,07,08,12,08,23.00
2012,07,08,12,09,23.00
2012,07,08,12,10,23.10
2012,07,08,12,11,23.10
2012,07,08,12,12,23.10
2012,07,08,12,13,23.20
2012,07,08,12,14,23.30
2012,07,08,12,15,23.40
2012,07,08,12,16,23.50
2012,07,08,12,17,23.60
2012,07,08,12,18,23.50
2012,07,08,12,19,23.50
2012,07,08,12,20,23.60
2012,07,08,12,21,23.60
2012,07,08,12,22,23.60
2012,07,08,12,23,23.60
2012,07,08,12,24,23.60
2012,07,08,12,25,23.60
2012,07,08,12,26,23.60
2012,07,08,12,27,23.70
2012,07,08,12,28,23.70
2012,07,08,12,29,23.80
2012,07,08,12,30,23.80
2012,07,08,12,31,23.80
2012,07,08,12,32,23.80
2012,07,08,12,33,23.70
2012,07,08,12,34,23.60
2012,07,08,12,35,23.60
2012,07,08,12,36,23.50
2012,07,08,12,37,23.50
2012,07,08,12,38,23.60
2012,07,08,12,39,23.70
2012,07,08,12,40,23.80
2012,07,08,12,41,23.80
2012,07,08,12,42,23.80
2012,07,08,12,43,23.80
2012,07,08,12,44,23.80
2012,07,08,12,45,23.80
2012,07,08,12,46,23.80
2012,07,08,12,47,23.90
2012,07,08,12,48,24.00
2012,07,08,12,49,24.10
2012,07,08,12,50,24.10
2012,07,08,12,51,24.10
2012,07,08,12,52,24.20
2012,07,08,12,53,24.20
2012,07,08,12,54,24.30
2012,07,08,12,55,24.40
2012,07,08,12,56,24.40
2012,07,08,12,57,24.50
2012,07,08,12,58,24.50
2012,07,08,12,59,24.60
2012,07,08,13,00,24.60
2012,07,08,13,01,24.60
2012,07,08,13,02,24.60
2012,07,08,13,03,24.60
2012,07,08,13,04,24.60
2012,07,08,13,05,24.60
2012,07,08,13,06,24.60
2012,07,08,13,07,24.70
2012,07,08,13,08,24.80
2012,07,08,13,09,24.80
2012,07,08,13,10,24.70
2012,07,08,13,11,24.50
2012,07,08,13,12,24.30
2012,07,08,13,13,24.20
2012,07,08,13,14,24.10
2012,07,08,13,15,23.90
2012,07,08,13,16,23.90
2012,07,08,13,17,23.80
2012,07,08,13,18,23.80
2012,07,08,13,19,23.70
2012,07,08,13,20,23.70
2012,07,08,13,21,23.70
2012,07,08,13,22,23.60
2012,07,08,13,23,23.50
2012,07,08,13,24,23.50
2012,07,08,13,25,23.50
2012,07,08,13,26,23.60
2012,07,08,13,27,23.60
2012,07,08,13,28,23.70
2012,07,08,13,29,23.70
2012,07,08,13,30,23.60
2012,07,08,13,31,23.60
2012,07,08,13,32,23.60
2012,07,08,13,33,23.50
2012,07,08,13,34,23.40
2012,07,08,13,35,23.40
2012,07,08,13,36,23.30
2012,07,08,13,37,23.30
2012,07,08,13,38,23.30
2012,07,08,13,39,23.30
2012,07,08,13,40,23.40
2012,07,08,13,41,23.40
2012,07,08,13,42,23.40
2012,07,08,13,43,23.40
2012,07,08,13,44,23.40
2012,07,08,13,45,23.50
2012,07,08,13,46,23.50
2012,07,08,13,47,23.50
2012,07,08,13,48,23.50
2012,07,08,13,49,23.50
2012,07,08,13,50,23.50
2012,07,08,13,51,23.60
2012,07,08,13,52,23.60
2012,07,08,13,53,23.70
2012,07,08,13,54,23.70
2012,07,08,13,55,23.60
2012,07,08,13,56,23.50
2012,07,08,13,57,23.50
2012,07,08,13,58,23.50
2012,07,08,13,59,23.50
2012,07,08,14,00,23.40
2012,07,08,14,01,23.50
2012,07,08,14,02,23.50
2012,07,08,14,03,23.50
2012,07,08,14,04,23.50
2012,07,08,14,05,23.50
2012,07,08,14,06,23.60
2012,07,08,14,07,23.60
2012,07,08,14,08,23.60
2012,07,08,14,09,23.70
2012,07,08,14,10,23.70
2012,07,08,14,11,23.70
2012,07,08,14,12,23.70
2012,07,08,14,13,23.70
2012,07,08,14,14,23.70
2012,07,08,14,15,23.70
2012,07,08,14,16,23.70
2012,07,08,14,17,23.70
2012,07,08,14,18,23.70
2012,07,08,14,19,23.60
2012,07,08,14,20,23.60
2012,07,08,14,21,23.70
2012,07,08,14,22,23.70
2012,07,08,14,23,23.80
2012,07,08,14,24,23.80
2012,07,08,14,25,23.80
2012,07,08,14,26,23.80
2012,07,08,14,27,23.80
2012,07,08,14,28,23.80
2012,07,08,14,29,23.80
2012,07,08,14,30,23.80
2012,07,08,14,31,23.80
2012,07,08,14,32,23.80
2012,07,08,14,33,23.80
2012,07,08,14,34,23.90
2012,07,08,14,35,23.90
2012,07,08,14,36,23.90
2012,07,08,14,37,23.90
2012,07,08,14,38,23.80
2012,07,08,14,39,23.80
2012,07,08,14,40,23.80
2012,07,08,14,41,23.80
2012,07,08,14,42,23.80
2012,07,08,14,43,23.70
2012,07,08,14,44,23.70
2012,07,08,14,45,23.70
2012,07,08,14,46,23.70
2012,07,08,14,47,23.80
2012,07,08,14,48,23.80
2012,07,08,14,49,23.90
2012,07,08,14,50,23.90
2012,07,08,14,51,23.90
2012,07,08,14,52,23.90
2012,07,08,14,53,23.90
2012,07,08,14,54,23.90
2012,07,08,14,55,23.80
2012,07,08,14,56,23.80
2012,07,08,14,57,23.80
2012,07,08,14,58,23.80
2012,07,08,14,59,23.90
2012,07,08,15,00,23.90
2012,07,08,15,01,23.90
2012,07,08,15,02,23.90
2012,07,08,15,03,23.90
2012,07,08,15,04,23.90
2012,07,08,15,05,23.80
2012,07,08,15,06,23.80
2012,07,08,15,07,23.80
2012,07,08,15,08,23.80
2012,07,08,15,09,23.80
2012,07,08,15,10,23.80
2012,07,08,15,11,23.80
2012,07,08,15,12,23.80
2012,07,08,15,13,23.90
2012,07,08,15,14,23.90
2012,07,08,15,15,23.90
2012,07,08,15,16,23.90
2012,07,08,15,17,24.00
2012,07,08,15,18,24.00
2012,07,08,15,19,24.00
2012,07,08,15,20,23.90
2012,07,08,15,21,23.90
2012,07,08,15,22,23.90
2012,07,08,15,23,23.90
2012,07,08,15,24,23.90
2012,07,08,15,25,23.90
2012,07,08,15,26,23.90
2012,07,08,15,27,23.90
2012,07,08,15,28,23.90
2012,07,08,15,29,23.90
2012,07,08,15,30,23.90
2012,07,08,15,31,23.90
2012,07,08,15,32,23.80
2012,07,08,15,33,23.80
2012,07,08,15,34,23.80
2012,07,08,15,35,23.70
2012,07,08,15,36,23.70
2012,07,08,15,37,23.70
2012,07,08,15,38,23.70
2012,07,08,15,39,23.60
2012,07,08,15,40,23.60
2012,07,08,15,41,23.60
2012,07,08,15,42,23.70
2012,07,08,15,43,23.70
2012,07,08,15,44,23.70
2012,07,08,15,45,23.80
2012,07,08,15,46,23.80
2012,07,08,15,47,23.80
2012,07,08,15,48,23.90
2012,07,08,15,49,24.00
2012,07,08,15,50,24.00
2012,07,08,15,51,24.00
2012,07,08,15,52,24.00
2012,07,08,15,53,23.90
2012,07,08,15,54,23.90
2012,07,08,15,55,23.90
2012,07,08,15,56,23.90
2012,07,08,15,57,23.90
2012,07,08,15,58,23.90
2012,07,08,15,59,23.90
2012,07,08,16,00,24.00
2012,07,08,16,01,24.00
2012,07,08,16,02,24.10
2012,07,08,16,03,24.20
2012,07,08,16,04,24.20
2012,07,08,16,05,24.20
2012,07,08,16,06,24.20
2012,07,08,16,07,24.20
2012,07,08,16,08,24.10
2012,07,08,16,09,24.10
2012,07,08,16,10,24.10
2012,07,08,16,11,24.00
2012,07,08,16,12,24.00
2012,07,08,16,13,23.90
2012,07,08,16,14,24.00
2012,07,08,16,15,24.10
2012,07,08,16,16,24.10
2012,07,08,16,17,24.20
2012,07,08,16,18,24.20
2012,07,08,16,19,24.30
2012,07,08,16,20,24.30
2012,07,08,16,21,24.30
2012,07,08,16,22,24.30
2012,07,08,16,23,24.30
2012,07,08,16,24,24.30
2012,07,08,16,25,24.30
2012,07,08,16,26,24.30
2012,07,08,16,27,24.30
2012,07,08,16,28,24.30
2012,07,08,16,29,24.30
2012,07,08,16,30,24.40
2012,07,08,16,31,24.40
2012,07,08,16,32,24.40
2012,07,08,16,33,24.40
2012,07,08,16,34,24.40
2012,07,08,16,35,24.40
2012,07,08,16,36,24.30
2012,07,08,16,37,24.30
2012,07,08,16,38,24.30
2012,07,08,16,39,24.30
2012,07,08,16,40,24.20
2012,07,08,16,41,24.20
2012,07,08,16,42,24.20
2012,07,08,16,43,24.20
2012,07,08,16,44,24.10
2012,07,08,16,45,24.10
2012,07,08,16,46,24.00
2012,07,08,16,47,24.00
2012,07,08,16,48,24.10
2012,07,08,16,49,24.10
2012,07,08,16,50,24.10
2012,07,08,16,51,24.20
2012,07,08,16,52,24.20
2012,07,08,16,53,24.30
2012,07,08,16,54,24.20
2012,07,08,16,55,24.20
2012,07,08,16,56,24.20
2012,07,08,16,57,24.20
2012,07,08,16,58,24.20
2012,07,08,16,59,24.20
2012,07,08,17,00,24.20
2012,07,08,17,01,24.20
2012,07,08,17,02,24.30
2012,07,08,17,03,24.40
2012,07,08,17,04,24.40
2012,07,08,17,05,24.40
2012,07,08,17,06,24.40
2012,07,08,17,07,24.40
2012,07,08,17,08,24.40
2012,07,08,17,09,24.40
2012,07,08,17,10,24.40
2012,07,08,17,11,24.40
2012,07,08,17,12,24.40
2012,07,08,17,13,24.30
2012,07,08,17,14,24.20
2012,07,08,17,15,24.20
2012,07,08,17,16,24.20
2012,07,08,17,17,24.10
2012,07,08,17,18,24.10
2012,07,08,17,19,24.20